Find Starlink 30806

NORAD ID: 58180 Int'l Des: 2023-167 Owner: SPXS Country: US Constellation: starlink operational
LEOCIRCULAR

Current View

Loading 3D Globe...

About Starlink 30806

Starlink 30806 (NORAD 58180) is a starlink constellation satellite (v2 mini) launched Oct 30, 2023 by SPXS of US. It operates in LEO, CIRCULAR orbit with a mass of 730.00 kg.

Upcoming Passes

Passes for default location (London). Set your location on the main map for personalized predictions.

Altitude History

Loading altitude history...

Two-Line Element Set

1 58180U 23167F 26263.30677782 .00098751 00000-0 20423-2 0 9993
2 58180 42.9915 114.3714 0016947 249.4243 110.4797 15.44613572160868
Epoch: Sep 20, 2026 • Age: 27 hours

Current Status

Altitude 429.9 km
Apogee / Perigee N/A
Velocity 7.66 km/s
Sub-Earth Point -29.72°S, 164.14°E
Launch Date Oct 30, 2023
Age 2.8 years
Type internet

Technical Details

Classification Payload
Mass 730.00 kg
Dry Mass 700.00 kg
Length 0.30 m
Span 29.00 m
Shape ? Box + pan
Manufacturer SPXS
Bus Type Starlink V2M
Phase Status In Orbit
Owner/State SPXS/US

Most Searched